When you browse on this site, cookies collect data to enhance your experience and personalize the content and advertising you see.
Visit our Privacy Policy to learn more. By continuing to use the site, you agree to this use of cookies and data.
  • In United Kingdom
  • List of Countries
  • For 7 days
  • Water Temperature
  • Satellite Maps
  • Weather Map
  • Weather Widgets
  • user-avatar
    Login

    Hourly Weather Top

    Today, 20 April, Saturday

    Time Temperature Precipitation Wind Pressure Humidity
    00:00 +22°C° 0 mm 0 mps 681 mmHg 87%
    01:00 +21°C° 0 mm 0 mps 680 mmHg 87%
    02:00 +21°C° 0 mm 0 mps 680 mmHg 88%
    03:00 +21°C° 0 mm 0 mps 680 mmHg 89%
    04:00 +20°C° 0 mm 0 mps 680 mmHg 90%
    05:00 +21°C° 0 mm 0 mps 680 mmHg 86%
    06:00 +22°C° 0 mm 0 mps 681 mmHg 82%
    07:00 +24°C° 0 mm 0 mps 681 mmHg 75%
    08:00 +27°C° 0 mm 0 mps 682 mmHg 64%
    09:00 +31°C° 0 mm 1 mps 682 mmHg 53%
    10:00 +34°C° 0 mm 1 mps 683 mmHg 42%
    11:00 +34°C° 0 mm 1 mps 682 mmHg 41%
    12:00 +35°C° 0 mm 1 mps 682 mmHg 39%
    13:00 +36°C° 0 mm 2 mps 682 mmHg 38%
    14:00 +35°C° 0 mm 2 mps 681 mmHg 41%
    15:00 +34°C° 0 mm 2 mps 680 mmHg 44%
    16:00 +32°C° 0 mm 1 mps 680 mmHg 47%
    17:00 +30°C° 0 mm 1 mps 680 mmHg 55%
    18:00 +26°C° 0 mm 0 mps 679 mmHg 62%
    19:00 +25°C° 0 mm 0 mps 679 mmHg 70%
    20:00 +24°C° 1 mm 0 mps 680 mmHg 76%
    21:00 +23°C° 1 mm 0 mps 680 mmHg 83%
    22:00 +22°C° 1 mm 0 mps 681 mmHg 89%
    23:00 +22°C° 0 mm 0 mps 680 mmHg 89%

    Tomorrow, 21 April, Sunday

    Time Temperature Precipitation Wind Pressure Humidity
    00:00 +22°C° 0 mm 0 mps 680 mmHg 89%
    01:00 +21°C° 0 mm 0 mps 680 mmHg 90%
    02:00 +21°C° 0 mm 0 mps 680 mmHg 90%
    03:00 +21°C° 0 mm 0 mps 680 mmHg 90%
    04:00 +21°C° 0 mm 0 mps 680 mmHg 90%
    05:00 +22°C° 0 mm 0 mps 680 mmHg 89%
    06:00 +22°C° 0 mm 0 mps 681 mmHg 88%
    07:00 +22°C° 0 mm 0 mps 681 mmHg 87%
    08:00 +26°C° 0.1 mm 1 mps 682 mmHg 80%
    09:00 +28°C° 0.1 mm 1 mps 682 mmHg 73%
    10:00 +30°C° 0.1 mm 1 mps 683 mmHg 65%
    11:00 +31°C° 0.2 mm 1 mps 682 mmHg 60%
    12:00 +32°C° 0.2 mm 1 mps 682 mmHg 55%
    13:00 +33°C° 0.2 mm 1 mps 682 mmHg 49%
    14:00 +31°C° 0.1 mm 0 mps 681 mmHg 47%
    15:00 +32°C° 0.1 mm 0 mps 681 mmHg 45%
    16:00 +32°C° 0.1 mm 0 mps 680 mmHg 43%
    17:00 +29°C° 0 mm 0 mps 680 mmHg 50%
    18:00 +27°C° 0 mm 0 mps 680 mmHg 57%
    19:00 +25°C° 0 mm 0 mps 680 mmHg 64%
    20:00 +24°C° 0.3 mm 0 mps 680 mmHg 70%
    21:00 +25°C° 0.3 mm 1 mps 681 mmHg 76%
    22:00 +24°C° 0.3 mm 1 mps 681 mmHg 81%
    23:00 +23°C° 1.1 mm 1 mps 681 mmHg 84%

    Day after tomorrow, 22 April, Monday

    Time Temperature Precipitation Wind Pressure Humidity
    00:00 +21°C° 1.1 mm 0 mps 680 mmHg 88%
    01:00 +21°C° 1.1 mm 0 mps 680 mmHg 91%
    02:00 +21°C° 0.1 mm 0 mps 680 mmHg 91%
    03:00 +21°C° 0.1 mm 0 mps 680 mmHg 90%
    04:00 +20°C° 0.1 mm 0 mps 679 mmHg 90%
    05:00 +21°C° 0 mm 0 mps 680 mmHg 89%
    06:00 +22°C° 0 mm 0 mps 681 mmHg 87%
    07:00 +23°C° 0 mm 0 mps 682 mmHg 86%
    08:00 +25°C° 0 mm 0 mps 682 mmHg 76%
    09:00 +29°C° 0 mm 1 mps 683 mmHg 67%
    10:00 +31°C° 0 mm 1 mps 683 mmHg 57%
    11:00 +33°C° 0 mm 1 mps 683 mmHg 51%
    12:00 +34°C° 0 mm 1 mps 683 mmHg 44%
    13:00 +36°C° 0 mm 1 mps 683 mmHg 38%
    14:00 +35°C° 0 mm 1 mps 682 mmHg 39%
    15:00 +35°C° 0 mm 1 mps 682 mmHg 39%
    16:00 +34°C° 0 mm 1 mps 681 mmHg 40%
    17:00 +32°C° 0.1 mm 1 mps 681 mmHg 49%
    18:00 +27°C° 0.1 mm 0 mps 681 mmHg 58%
    19:00 +25°C° 0.1 mm 0 mps 681 mmHg 67%
    20:00 +24°C° 0.1 mm 0 mps 681 mmHg 71%
    21:00 +23°C° 0.1 mm 0 mps 682 mmHg 76%
    22:00 +22°C° 0.1 mm 0 mps 682 mmHg 81%
    23:00 +22°C° 0 mm 0 mps 682 mmHg 82%

    23 April, Tuesday

    Time Temperature Precipitation Wind Pressure Humidity
    00:00 +22°C° 0 mm 0 mps 681 mmHg 82%
    01:00 +21°C° 0 mm 0 mps 681 mmHg 83%
    02:00 +21°C° 0 mm 0 mps 681 mmHg 84%
    03:00 +21°C° 0 mm 0 mps 681 mmHg 85%
    04:00 +21°C° 0 mm 0 mps 680 mmHg 86%
    05:00 +22°C° 0.1 mm 0 mps 681 mmHg 83%
    06:00 +23°C° 0.1 mm 0 mps 682 mmHg 80%
    07:00 +24°C° 0.1 mm 0 mps 683 mmHg 77%
    08:00 +26°C° 0.1 mm 0 mps 684 mmHg 67%
    09:00 +29°C° 0.1 mm 0 mps 685 mmHg 57%
    10:00 +33°C° 0.1 mm 1 mps 685 mmHg 47%
    11:00 +34°C° 0.1 mm 1 mps 685 mmHg 46%
    12:00 +34°C° 0.1 mm 1 mps 684 mmHg 44%
    13:00 +34°C° 0.1 mm 1 mps 683 mmHg 43%
    14:00 +33°C° 0.2 mm 1 mps 683 mmHg 47%
    15:00 +30°C° 0.2 mm 0 mps 682 mmHg 50%
    16:00 +29°C° 0.2 mm 0 mps 681 mmHg 53%
    17:00 +28°C° 0.2 mm 0 mps 681 mmHg 59%
    18:00 +26°C° 0.2 mm 0 mps 681 mmHg 65%
    19:00 +26°C° 0.2 mm 1 mps 682 mmHg 71%
    20:00 +26°C° 0 mm 1 mps 682 mmHg 74%
    21:00 +25°C° 0 mm 1 mps 682 mmHg 76%
    22:00 +24°C° 0 mm 1 mps 683 mmHg 79%
    23:00 +24°C° 0 mm 1 mps 682 mmHg 80%

    24 April, Wednesday

    Time Temperature Precipitation Wind Pressure Humidity
    00:00 +24°C° 0 mm 1 mps 682 mmHg 81%
    01:00 +21°C° 0 mm 0 mps 681 mmHg 82%
    02:00 +21°C° 0 mm 0 mps 681 mmHg 82%
    03:00 +21°C° 0 mm 0 mps 681 mmHg 81%
    04:00 +21°C° 0 mm 0 mps 681 mmHg 81%
    05:00 +22°C° 0 mm 0 mps 682 mmHg 77%
    06:00 +24°C° 0 mm 0 mps 683 mmHg 72%
    07:00 +25°C° 0 mm 0 mps 684 mmHg 67%
    08:00 +27°C° 0 mm 0 mps 684 mmHg 59%
    09:00 +32°C° 0 mm 1 mps 685 mmHg 51%
    10:00 +34°C° 0 mm 1 mps 685 mmHg 42%
    11:00 +34°C° 0 mm 1 mps 684 mmHg 42%
    12:00 +34°C° 0 mm 1 mps 684 mmHg 41%
    13:00 +35°C° 0 mm 1 mps 683 mmHg 41%
    14:00 +34°C° 0 mm 1 mps 683 mmHg 43%
    15:00 +31°C° 0 mm 0 mps 682 mmHg 45%
    16:00 +30°C° 0 mm 0 mps 681 mmHg 46%
    17:00 +29°C° 0.1 mm 0 mps 682 mmHg 52%
    18:00 +29°C° 0.1 mm 1 mps 682 mmHg 58%
    19:00 +27°C° 0.1 mm 1 mps 682 mmHg 63%
    20:00 +27°C° 0.1 mm 1 mps 682 mmHg 66%
    21:00 +26°C° 0.1 mm 1 mps 682 mmHg 69%
    22:00 +25°C° 0.1 mm 1 mps 682 mmHg 72%
    23:00 +23°C° 0 mm 0 mps 682 mmHg 73%

    25 April, Thursday

    Time Temperature Precipitation Wind Pressure Humidity
    00:00 +22°C° 0 mm 0 mps 681 mmHg 74%
    01:00 +22°C° 0 mm 0 mps 681 mmHg 75%
    02:00 +22°C° 0 mm 0 mps 681 mmHg 75%
    03:00 +22°C° 0 mm 0 mps 681 mmHg 74%
    04:00 +22°C° 0 mm 0 mps 681 mmHg 74%
    05:00 +23°C° 0 mm 0 mps 681 mmHg 72%
    06:00 +24°C° 0 mm 0 mps 682 mmHg 69%
    07:00 +24°C° 0 mm 0 mps 683 mmHg 67%
    08:00 +29°C° 0 mm 1 mps 683 mmHg 61%
    09:00 +31°C° 0 mm 1 mps 684 mmHg 54%
    10:00 +33°C° 0 mm 1 mps 684 mmHg 47%
    11:00 +34°C° 0.3 mm 1 mps 684 mmHg 46%
    12:00 +34°C° 0.3 mm 1 mps 683 mmHg 45%
    13:00 +35°C° 0.3 mm 1 mps 683 mmHg 43%
    14:00 +32°C° 0.1 mm 0 mps 682 mmHg 46%
    15:00 +31°C° 0.1 mm 0 mps 682 mmHg 48%
    16:00 +30°C° 0.1 mm 0 mps 681 mmHg 50%
    17:00 +28°C° 0.1 mm 0 mps 681 mmHg 56%
    18:00 +27°C° 0.1 mm 0 mps 681 mmHg 61%
    19:00 +25°C° 0.1 mm 0 mps 681 mmHg 66%
    20:00 +24°C° 0.1 mm 0 mps 681 mmHg 71%
    21:00 +23°C° 0.1 mm 0 mps 681 mmHg 76%
    22:00 +22°C° 0.1 mm 0 mps 682 mmHg 81%
    23:00 +22°C° 0 mm 0 mps 681 mmHg 82%
    Show more